Location: Burera
(21.3780°N, 81.9534°E)
Time: 01:22:41
(UTC+00:00)

MSX - Pass Details

Date: 13 August 2020
Orbit: 896 x 905 km, 98.8° (Epoch: 22 September)

Event Time Altitude Azimuth Distance (km) Brightness Sun altitude
Rises 22:22:12 0° 0° (N) 3,522 7.3 -24.2°
Reaches altitude 10° 22:24:44 10° 353° (N) 2,580 6.4 -23.7°
Maximum altitude 22:30:01 39° 287° (WNW) 1,330 4.3 -22.6°
Enters shadow 22:30:11 39° 283° (WNW) 1,331 4.3 -22.6°
